{"data":{"norad_id":58516,"epoch":"2026-09-20T22:08:36.882240Z","epoch_age_seconds":110440,"freshness":"FRESH","line1":"1 58516U 23191J   26263.92264910 -.00007590  00000+0 -26696-3 0  9997","line2":"2 58516  43.0029  80.5216 0001292  14.6740 345.4149 15.27534621155336","mean_motion":15.27534621,"eccentricity":0.0001292,"inclination_deg":43.0029,"raan_deg":80.5216,"arg_perigee_deg":14.674,"mean_anomaly_deg":345.4149,"bstar":-0.00026696,"rev_number":15533,"period_min":94.269549128602,"perigee_km":482.29849765466,"apogee_km":484.07146325441,"semimajor_km":6861.3219804545,"source":"CELESTRAK","updated_at":"2026-09-21T09:00:33.908284Z"}}